| time (UTC) | temp C | wind direction | speed KPH | gust KPH | rain 1hr cm | rain 24hr cm | rain mn cm | humidity % | barometer mb |
| 20260831220530 | 25 | 256 | 0.0 | 1.6 | 0.00 | 0.15 | 0.00 | 56 | 1006.6 |
| 20260831220013 | 25 | 267 | 0.0 | 0.0 | 0.00 | 0.15 | 0.00 | 55 | 1006.6 |
| 20260831215513 | 25 | 255 | 0.0 | 0.0 | 0.00 | 0.15 | 0.00 | 53 | 1006.7 |
| 20260831215012 | 25 | 297 | 0.0 | 1.6 | 0.00 | 0.15 | 0.00 | 52 | 1006.7 |
| 20260831214516 | 25 | 260 | 0.0 | 1.6 | 0.00 | 0.15 | 0.00 | 51 | 1006.8 |
| 20260831214112 | 25 | 47 | 0.0 | 1.6 | 0.00 | 0.15 | 0.00 | 52 | 1006.8 |
| 20260831213511 | 25 | 56 | 0.0 | 0.0 | 0.00 | 0.15 | 0.00 | 50 | 1007.0 |
| 20260831213051 | 26 | 70 | 0.0 | 1.6 | 0.00 | 0.15 | 0.00 | 50 | 1007.0 |
| 20260831212553 | 25 | 60 | 0.0 | 3.2 | 0.00 | 0.15 | 0.00 | 53 | 1007.2 |
| 20260831212050 | 25 | 65 | 0.0 | 6.4 | 0.00 | 0.15 | 0.00 | 51 | 1007.2 |
| 20260831211604 | 26 | 68 | 1.6 | 6.4 | 0.00 | 0.15 | 0.00 | 49 | 1007.3 |
| 20260831211049 | 26 | 239 | 0.0 | 1.6 | 0.00 | 0.15 | 0.00 | 51 | 1007.4 |
| 20260831210551 | 26 | 135 | 0.0 | 1.6 | 0.00 | 0.15 | 0.00 | 51 | 1007.4 |
| 20260831210030 | 25 | 77 | 0.0 | 0.0 | 0.00 | 0.15 | 0.00 | 51 | 1007.7 |
| 20260831205529 | 25 | 20 | 0.0 | 1.6 | 0.00 | 0.15 | 0.00 | 49 | 1007.7 |
| 20260831205029 | 26 | 46 | 0.0 | 1.6 | 0.00 | 0.15 | 0.00 | 48 | 1007.8 |
| 20260831204527 | 25 | 314 | 0.0 | 0.0 | 0.00 | 0.15 | 0.00 | 50 | 1007.9 |
| 20260831204027 | 25 | 82 | 0.0 | 0.0 | 0.00 | 0.15 | 0.00 | 49 | 1008.0 |
| 20260831203525 | 25 | 69 | 0.0 | 0.0 | 0.00 | 0.15 | 0.00 | 48 | 1008.1 |
| 20260831203007 | 25 | 57 | 0.0 | 0.0 | 0.00 | 0.15 | 0.00 | 53 | 1008.3 |
| 20260831202507 | 25 | 284 | 0.0 | 0.0 | 0.00 | 0.15 | 0.00 | 50 | 1008.4 |
| 20260831202005 | 25 | 236 | 0.0 | 0.0 | 0.00 | 0.15 | 0.00 | 50 | 1008.6 |
| 20260831201504 | 25 | 65 | 0.0 | 1.6 | 0.00 | 0.15 | 0.00 | 55 | 1008.7 |
| 20260831201003 | 24 | 70 | 0.0 | 1.6 | 0.00 | 0.15 | 0.00 | 52 | 1008.8 |
| 20260831200503 | 25 | 61 | 0.0 | 0.0 | 0.00 | 0.15 | 0.00 | 51 | 1008.8 |
| 20260831200045 | 24 | 308 | 0.0 | 0.0 | 0.00 | 0.15 | 0.00 | 54 | 1009.0 |
| 20260831195545 | 24 | 283 | 0.0 | 0.0 | 0.00 | 0.15 | 0.00 | 58 | 1009.1 |
| 20260831195045 | 23 | 285 | 0.0 | 0.0 | 0.00 | 0.15 | 0.00 | 58 | 1009.3 |
| 20260831194613 | 23 | 224 | 0.0 | 0.0 | 0.00 | 0.15 | 0.00 | 55 | 1009.4 |
| 20260831194039 | 23 | 291 | 0.0 | 0.0 | 0.00 | 0.15 | 0.00 | 56 | 1009.6 |
| 20260831193544 | 23 | 351 | 0.0 | 0.0 | 0.00 | 0.15 | 0.00 | 53 | 1009.6 |
| 20260831193028 | 23 | 41 | 0.0 | 0.0 | 0.00 | 0.15 | 0.00 | 55 | 1009.7 |
| 20260831192529 | 23 | 219 | 0.0 | 0.0 | 0.00 | 0.15 | 0.00 | 54 | 1009.7 |
| 20260831192024 | 23 | 212 | 0.0 | 0.0 | 0.00 | 0.15 | 0.00 | 58 | 1009.9 |
| 20260831191528 | 23 | 217 | 0.0 | 0.0 | 0.00 | 0.15 | 0.00 | 58 | 1009.9 |
| 20260831191024 | 23 | 98 | 0.0 | 0.0 | 0.00 | 0.15 | 0.00 | 55 | 1009.9 |
| 20260831190524 | 23 | 243 | 0.0 | 0.0 | 0.00 | 0.15 | 0.00 | 57 | 1010.0 |
| 20260831190023 | 23 | 238 | 0.0 | 0.0 | 0.00 | 0.15 | 0.00 | 55 | 1010.0 |
| 20260831185522 | 24 | 262 | 0.0 | 0.0 | 0.00 | 0.15 | 0.00 | 57 | 1010.1 |
| 20260831185021 | 23 | 323 | 0.0 | 0.0 | 0.00 | 0.15 | 0.00 | 58 | 1010.1 |
| 20260831184525 | 23 | 20 | 0.0 | 0.0 | 0.00 | 0.15 | 0.00 | 58 | 1010.2 |
| 20260831184018 | 23 | 69 | 0.0 | 0.0 | 0.00 | 0.15 | 0.00 | 58 | 1010.3 |
| 20260831183517 | 22 | 27 | 0.0 | 0.0 | 0.00 | 0.15 | 0.00 | 58 | 1010.4 |
| 20260831183017 | 22 | 353 | 0.0 | 0.0 | 0.00 | 0.15 | 0.00 | 58 | 1010.5 |
| 20260831182516 | 22 | 20 | 0.0 | 0.0 | 0.00 | 0.15 | 0.00 | 57 | 1010.6 |
| 20260831182015 | 22 | 246 | 0.0 | 0.0 | 0.00 | 0.15 | 0.00 | 61 | 1010.6 |
| 20260831181521 | 22 | 274 | 0.0 | 0.0 | 0.00 | 0.15 | 0.00 | 61 | 1010.6 |
| 20260831181014 | 22 | 302 | 0.0 | 0.0 | 0.00 | 0.15 | 0.00 | 58 | 1010.8 |
| 20260831180521 | 22 | 293 | 0.0 | 1.6 | 0.00 | 0.15 | 0.00 | 58 | 1010.9 |
| 20260831180012 | 22 | 252 | 0.0 | 1.6 | 0.00 | 0.15 | 0.00 | 61 | 1010.8 |
| 20260831175512 | 22 | 297 | 0.0 | 0.0 | 0.00 | 0.15 | 0.00 | 60 | 1010.9 |
| 20260831175011 | 23 | 323 | 0.0 | 1.6 | 0.00 | 0.15 | 0.00 | 60 | 1010.9 |
| 20260831174510 | 23 | 250 | 0.0 | 1.6 | 0.00 | 0.15 | 0.00 | 65 | 1011.0 |
| 20260831174009 | 22 | 234 | 0.0 | 1.6 | 0.00 | 0.15 | 0.00 | 65 | 1011.1 |
| 20260831173507 | 22 | 253 | 0.0 | 0.0 | 0.00 | 0.15 | 0.00 | 69 | 1011.2 |
| 20260831173109 | 22 | 350 | 0.0 | 1.6 | 0.00 | 0.15 | 0.00 | 67 | 1011.3 |
| 20260831172548 | 22 | 236 | 0.0 | 1.6 | 0.00 | 0.15 | 0.00 | 69 | 1011.3 |
| 20260831172047 | 22 | 285 | 0.0 | 0.0 | 0.00 | 0.15 | 0.00 | 72 | 1011.4 |
| 20260831171546 | 21 | 300 | 0.0 | 0.0 | 0.00 | 0.15 | 0.00 | 70 | 1011.5 |
| 20260831171046 | 21 | 251 | 0.0 | 0.0 | 0.00 | 0.15 | 0.00 | 68 | 1011.6 |
| 20260831170545 | 22 | 276 | 0.0 | 1.6 | 0.00 | 0.15 | 0.00 | 72 | 1011.5 |
| 20260831170044 | 21 | 243 | 0.0 | 1.6 | 0.00 | 0.15 | 0.00 | 74 | 1011.6 |
| 20260831165524 | 21 | 301 | 0.0 | 1.6 | 0.00 | 0.15 | 0.00 | 74 | 1011.6 |
| 20260831165024 | 20 | 250 | 0.0 | 1.6 | 0.00 | 0.15 | 0.00 | 74 | 1011.7 |
| 20260831164524 | 20 | 240 | 0.0 | 1.6 | 0.00 | 0.15 | 0.00 | 74 | 1011.8 |
| 20260831164024 | 20 | 259 | 0.0 | 1.6 | 0.00 | 0.15 | 0.00 | 74 | 1011.8 |
| 20260831163522 | 20 | 253 | 0.0 | 0.0 | 0.00 | 0.15 | 0.00 | 76 | 1011.8 |
| 20260831163023 | 20 | 253 | 0.0 | 0.0 | 0.00 | 0.15 | 0.00 | 76 | 1011.9 |
| 20260831162504 | 20 | 281 | 0.0 | 0.0 | 0.00 | 0.15 | 0.00 | 76 | 1012.0 |
| 20260831162003 | 20 | 348 | 0.0 | 0.0 | 0.00 | 0.15 | 0.00 | 75 | 1012.0 |
| 20260831161502 | 20 | 260 | 0.0 | 1.6 | 0.00 | 0.15 | 0.00 | 77 | 1011.9 |
| 20260831161100 | 20 | 326 | 0.0 | 1.6 | 0.00 | 0.15 | 0.00 | 79 | 1012.0 |
| 20260831160559 | 19 | 293 | 0.0 | 0.0 | 0.00 | 0.15 | 0.00 | 79 | 1012.1 |
| 20260831160059 | 19 | 252 | 0.0 | 0.0 | 0.00 | 0.15 | 0.00 | 79 | 1012.1 |
| 20260831155540 | 19 | 8 | 0.0 | 0.0 | 0.00 | 0.15 | 0.00 | 80 | 1012.1 |
| 20260831155041 | 18 | 240 | 0.0 | 0.0 | 0.00 | 0.15 | 0.00 | 82 | 1012.1 |
| 20260831154537 | 18 | 236 | 0.0 | 0.0 | 0.00 | 0.15 | 0.00 | 85 | 1012.2 |
| 20260831154038 | 18 | 233 | 0.0 | 0.0 | 0.00 | 0.15 | 0.00 | 86 | 1012.2 |
| 20260831153537 | 17 | 231 | 0.0 | 1.6 | 0.00 | 0.15 | 0.00 | 85 | 1012.2 |
| 20260831153032 | 17 | 200 | 0.0 | 1.6 | 0.00 | 0.15 | 0.15 | 86 | 1012.1 |
| 20260831152516 | 17 | 279 | 0.0 | 0.0 | 0.00 | 0.15 | 0.15 | 85 | 1012.2 |
| 20260831152019 | 17 | 265 | 0.0 | 0.0 | 0.00 | 0.15 | 0.15 | 88 | 1012.1 |
| 20260831151516 | 17 | 256 | 0.0 | 0.0 | 0.00 | 0.15 | 0.15 | 88 | 1012.0 |
| 20260831151017 | 17 | 17 | 0.0 | 0.0 | 0.00 | 0.15 | 0.15 | 89 | 1012.0 |
| 20260831150515 | 17 | 9 | 0.0 | 0.0 | 0.00 | 0.15 | 0.15 | 90 | 1012.0 |
| 20260831150016 | 17 | 295 | 0.0 | 0.0 | 0.00 | 0.15 | 0.15 | 90 | 1012.1 |
| 20260831145557 | 17 | 297 | 0.0 | 0.0 | 0.00 | 0.15 | 0.15 | 91 | 1012.1 |
| 20260831145057 | 17 | 297 | 0.0 | 0.0 | 0.00 | 0.15 | 0.15 | 91 | 1012.1 |
| 20260831144616 | 16 | 300 | 0.0 | 0.0 | 0.00 | 0.15 | 0.15 | 92 | 1012.1 |
| 20260831144057 | 16 | 320 | 0.0 | 0.0 | 0.00 | 0.15 | 0.15 | 93 | 1012.2 |
| 20260831143557 | 16 | 250 | 0.0 | 0.0 | 0.00 | 0.15 | 0.15 | 94 | 1012.1 |
| 20260831143057 | 16 | 257 | 0.0 | 0.0 | 0.00 | 0.15 | 0.15 | 95 | 1012.1 |
| 20260831142541 | 16 | 257 | 0.0 | 0.0 | 0.00 | 0.15 | 0.15 | 96 | 1012.1 |
| 20260831142039 | 15 | 257 | 0.0 | 0.0 | 0.00 | 0.15 | 0.15 | 96 | 1012.1 |
| 20260831141539 | 15 | 259 | 0.0 | 0.0 | 0.00 | 0.15 | 0.15 | 97 | 1012.1 |
| 20260831141039 | 15 | 274 | 0.0 | 0.0 | 0.00 | 0.15 | 0.15 | 97 | 1012.2 |
| 20260831140541 | 15 | 274 | 0.0 | 0.0 | 0.00 | 0.15 | 0.15 | 98 | 1012.3 |
| 20260831140039 | 15 | 276 | 0.0 | 0.0 | 0.00 | 0.15 | 0.15 | 98 | 1012.3 |
| 20260831135521 | 15 | 252 | 0.0 | 0.0 | 0.00 | 0.15 | 0.15 | 98 | 1012.2 |
| 20260831135022 | 15 | 250 | 0.0 | 0.0 | 0.00 | 0.15 | 0.15 | 98 | 1012.2 |
| 20260831134520 | 15 | 248 | 0.0 | 0.0 | 0.00 | 0.15 | 0.15 | 98 | 1012.2 |
| 20260831134024 | 14 | 256 | 0.0 | 0.0 | 0.00 | 0.15 | 0.15 | 98 | 1012.1 |
| 20260831133520 | 14 | 256 | 0.0 | 0.0 | 0.00 | 0.15 | 0.15 | 98 | 1012.0 |
| 20260831133019 | 14 | 256 | 0.0 | 0.0 | 0.00 | 0.15 | 0.15 | 98 | 1011.8 |
| 20260831132501 | 14 | 256 | 0.0 | 0.0 | 0.00 | 0.15 | 0.15 | 98 | 1011.8 |
| 20260831132100 | -17 | 0.0 | 0.0 | 0.00 | 0.15 | 0.15 | 1011.9 | ||
| 20260831131558 | -17 | 0.0 | 0.0 | 0.00 | 0.15 | 0.15 | 1011.6 | ||
| 20260831131057 | -17 | 0.0 | 0.0 | 0.00 | 0.15 | 0.15 | 1011.6 | ||
| 20260831130555 | -17 | 0.0 | 0.0 | 0.00 | 0.15 | 0.15 | 1011.7 | ||
| 20260831130054 | -17 | 0.0 | 0.0 | 0.00 | 0.15 | 0.15 | 1011.5 | ||
| 20260831125541 | -17 | 0.0 | 0.0 | 0.00 | 0.15 | 0.15 | 1011.6 | ||
| 20260831125034 | -17 | 0.0 | 0.0 | 0.00 | 0.15 | 0.15 | 1011.6 | ||
| 20260831124532 | -17 | 0.0 | 0.0 | 0.00 | 0.15 | 0.15 | 1011.5 | ||
| 20260831124031 | -17 | 0.0 | 0.0 | 0.00 | 0.15 | 0.15 | 1011.5 | ||
| 20260831123529 | -17 | 0.0 | 0.0 | 0.00 | 0.15 | 0.15 | 1011.5 | ||
| 20260831123028 | -17 | 0.0 | 0.0 | 0.00 | 0.15 | 0.15 | 1011.4 | ||
| 20260831122510 | -17 | 0.0 | 0.0 | 0.00 | 0.15 | 0.15 | 1011.5 | ||
| 20260831122008 | -17 | 0.0 | 0.0 | 0.00 | 0.15 | 0.15 | 1011.4 | ||
| 20260831121507 | -17 | 0.0 | 0.0 | 0.00 | 0.15 | 0.15 | 1011.4 | ||
| 20260831121006 | -17 | 0.0 | 0.0 | 0.00 | 0.15 | 0.15 | 1011.3 | ||
| 20260831120507 | -17 | 0.0 | 0.0 | 0.00 | 0.15 | 0.15 | 1011.3 | ||
| 20260831120005 | -17 | 0.0 | 0.0 | 0.00 | 0.15 | 0.15 | 1011.3 | ||
| 20260831115543 | -17 | 0.0 | 0.0 | 0.00 | 0.15 | 0.15 | 1011.3 | ||
| 20260831115042 | -17 | 0.0 | 0.0 | 0.00 | 0.15 | 0.15 | 1011.3 | ||
| 20260831114541 | -17 | 0.0 | 0.0 | 0.00 | 0.15 | 0.15 | 1011.2 | ||
| 20260831114042 | -17 | 0.0 | 0.0 | 0.00 | 0.15 | 0.15 | 1011.1 | ||
| 20260831113538 | -17 | 0.0 | 0.0 | 0.00 | 0.15 | 0.15 | 1011.1 | ||
| 20260831113037 | -17 | 0.0 | 0.0 | 0.00 | 0.15 | 0.15 | 1011.2 | ||
| 20260831112517 | -17 | 0.0 | 0.0 | 0.00 | 0.15 | 0.15 | 1011.0 | ||
| 20260831112016 | -17 | 0.0 | 0.0 | 0.00 | 0.15 | 0.15 | 1011.0 | ||
| 20260831111514 | -17 | 0.0 | 0.0 | 0.00 | 0.15 | 0.15 | 1010.9 | ||
| 20260831111013 | -17 | 0.0 | 0.0 | 0.00 | 0.15 | 0.15 | 1011.0 | ||
| 20260831110512 | -17 | 0.0 | 0.0 | 0.00 | 0.15 | 0.15 | 1010.9 | ||
| 20260831110011 | -17 | 0.0 | 0.0 | 0.00 | 0.15 | 0.15 | 1010.9 | ||
| 20260831105610 | -17 | 0.0 | 0.0 | 0.00 | 0.15 | 0.15 | 1010.9 | ||
| 20260831105051 | -17 | 0.0 | 0.0 | 0.00 | 0.15 | 0.15 | 1010.7 | ||
| 20260831104549 | -17 | 0.0 | 0.0 | 0.00 | 0.15 | 0.15 | 1010.8 | ||
| 20260831104048 | -17 | 0.0 | 0.0 | 0.00 | 0.15 | 0.15 | 1010.8 | ||
| 20260831103547 | -17 | 0.0 | 0.0 | 0.00 | 0.15 | 0.15 | 1010.9 | ||
| 20260831103047 | -17 | 0.0 | 0.0 | 0.00 | 0.15 | 0.15 | 1010.7 | ||
| 20260831102543 | -17 | 0.0 | 0.0 | 0.00 | 0.15 | 0.15 | 1010.7 | ||
| 20260831102025 | -17 | 0.0 | 0.0 | 0.00 | 0.15 | 0.15 | 1010.8 | ||
| 20260831101524 | -17 | 0.0 | 0.0 | 0.00 | 0.15 | 0.15 | 1010.9 | ||
| 20260831101026 | -17 | 0.0 | 0.0 | 0.00 | 0.15 | 0.15 | 1010.8 | ||
| 20260831100520 | -17 | 0.0 | 0.0 | 0.00 | 0.15 | 0.15 | 1010.7 | ||
| 20260831100019 | -17 | 0.0 | 0.0 | 0.00 | 0.15 | 0.15 | 1010.7 | ||
| 20260831095517 | -17 | 0.0 | 0.0 | 0.00 | 0.15 | 0.15 | 1010.6 | ||
| 20260831095058 | -17 | 0.0 | 0.0 | 0.00 | 0.15 | 0.15 | 1010.5 | ||
| 20260831094559 | 14 | 224 | 0.0 | 0.0 | 0.00 | 0.15 | 0.15 | 95 | 1010.6 |
| 20260831094058 | 14 | 224 | 0.0 | 0.0 | 0.00 | 0.15 | 0.15 | 95 | 1010.6 |
| 20260831093558 | 14 | 224 | 0.0 | 0.0 | 0.00 | 0.15 | 0.15 | 95 | 1010.6 |
| 20260831093057 | 14 | 224 | 0.0 | 0.0 | 0.00 | 0.15 | 0.15 | 95 | 1010.6 |
| 20260831092557 | 14 | 224 | 0.0 | 0.0 | 0.00 | 0.15 | 0.15 | 95 | 1010.6 |
| 20260831092042 | 14 | 224 | 0.0 | 0.0 | 0.00 | 0.15 | 0.15 | 95 | 1010.6 |
| 20260831091548 | 14 | 224 | 0.0 | 0.0 | 0.00 | 0.15 | 0.15 | 95 | 1010.6 |
| 20260831091039 | 14 | 224 | 0.0 | 0.0 | 0.00 | 0.15 | 0.15 | 95 | 1010.7 |
| 20260831090542 | 15 | 224 | 0.0 | 0.0 | 0.00 | 0.15 | 0.15 | 95 | 1010.7 |
| 20260831090039 | 14 | 224 | 0.0 | 0.0 | 0.00 | 0.15 | 0.15 | 95 | 1010.6 |
| 20260831085539 | 14 | 224 | 0.0 | 0.0 | 0.00 | 0.15 | 0.15 | 95 | 1010.6 |
| 20260831085022 | 14 | 223 | 0.0 | 0.0 | 0.00 | 0.15 | 0.15 | 95 | 1010.6 |
| 20260831084622 | 15 | 223 | 0.0 | 0.0 | 0.00 | 0.15 | 0.15 | 95 | 1010.6 |
| 20260831084018 | 15 | 224 | 0.0 | 0.0 | 0.00 | 0.15 | 0.15 | 96 | 1010.6 |
| 20260831083518 | 15 | 224 | 0.0 | 0.0 | 0.00 | 0.15 | 0.15 | 96 | 1010.6 |
| 20260831083018 | 15 | 225 | 0.0 | 0.0 | 0.00 | 0.15 | 0.15 | 96 | 1010.7 |
| 20260831082517 | 15 | 225 | 0.0 | 0.0 | 0.00 | 0.15 | 0.15 | 96 | 1010.7 |
| 20260831082101 | 15 | 224 | 0.0 | 0.0 | 0.00 | 0.15 | 0.15 | 95 | 1010.8 |
| 20260831081633 | 15 | 225 | 0.0 | 0.0 | 0.00 | 0.15 | 0.15 | 95 | 1010.8 |
| 20260831081059 | 15 | 225 | 0.0 | 0.0 | 0.00 | 0.15 | 0.15 | 95 | 1010.7 |
| 20260831080559 | 15 | 225 | 0.0 | 0.0 | 0.00 | 0.15 | 0.15 | 95 | 1010.6 |
| 20260831080100 | 15 | 225 | 0.0 | 0.0 | 0.00 | 0.15 | 0.15 | 95 | 1010.7 |
| 20260831075559 | 15 | 224 | 0.0 | 0.0 | 0.00 | 0.15 | 0.15 | 95 | 1010.7 |
| 20260831075042 | 15 | 225 | 0.0 | 0.0 | 0.00 | 0.15 | 0.15 | 95 | 1010.9 |
| 20260831074546 | 15 | 225 | 0.0 | 0.0 | 0.00 | 0.15 | 0.15 | 95 | 1011.0 |
| 20260831074042 | 15 | 225 | 0.0 | 0.0 | 0.00 | 0.15 | 0.15 | 95 | 1010.9 |
| 20260831073542 | 15 | 224 | 0.0 | 0.0 | 0.00 | 0.15 | 0.15 | 95 | 1010.9 |
| 20260831073111 | 15 | 225 | 0.0 | 1.6 | 0.00 | 0.15 | 0.15 | 94 | 1011.0 |
| 20260831072541 | 15 | 228 | 0.0 | 1.6 | 0.00 | 0.15 | 0.15 | 95 | 1011.1 |
| 20260831072023 | 15 | 256 | 0.0 | 0.0 | 0.00 | 0.15 | 0.15 | 95 | 1011.1 |
| 20260831071523 | 15 | 256 | 0.0 | 0.0 | 0.00 | 0.15 | 0.15 | 94 | 1011.0 |
| 20260831071027 | 15 | 256 | 0.0 | 0.0 | 0.00 | 0.15 | 0.15 | 94 | 1010.9 |
| 20260831070523 | 15 | 256 | 0.0 | 0.0 | 0.00 | 0.15 | 0.15 | 94 | 1010.9 |
| 20260831070031 | 15 | 255 | 0.0 | 0.0 | 0.00 | 0.15 | 0.15 | 94 | 1011.0 |
| 20260831065524 | 15 | 256 | 0.0 | 0.0 | 0.00 | 0.15 | 0.15 | 94 | 1011.1 |
| 20260831065004 | 15 | 256 | 0.0 | 0.0 | 0.00 | 0.15 | 0.15 | 94 | 1011.3 |
| 20260831064514 | 15 | 256 | 0.0 | 0.0 | 0.00 | 0.15 | 0.15 | 94 | 1011.4 |
| 20260831064005 | 15 | 255 | 0.0 | 0.0 | 0.00 | 0.15 | 0.15 | 94 | 1011.5 |
| 20260831063504 | 15 | 256 | 0.0 | 0.0 | 0.00 | 0.15 | 0.15 | 94 | 1011.5 |
| 20260831063009 | 15 | 256 | 0.0 | 0.0 | 0.00 | 0.20 | 0.15 | 94 | 1011.5 |
| 20260831062503 | 15 | 63 | 0.0 | 0.0 | 0.03 | 0.20 | 0.15 | 93 | 1011.5 |
| 20260831062046 | 15 | 63 | 0.0 | 0.0 | 0.03 | 0.20 | 0.15 | 93 | 1011.5 |
| 20260831061550 | 15 | 62 | 0.0 | 0.0 | 0.03 | 0.20 | 0.15 | 93 | 1011.5 |
| 20260831061045 | 15 | 63 | 0.0 | 0.0 | 0.05 | 0.20 | 0.15 | 92 | 1011.6 |
| 20260831060544 | 15 | 63 | 0.0 | 0.0 | 0.08 | 0.20 | 0.15 | 93 | 1011.8 |
| 20260831060058 | 15 | 63 | 0.0 | 0.0 | 0.10 | 0.20 | 0.15 | 93 | 1011.9 |
| 20260831055544 | 15 | 63 | 0.0 | 0.0 | 0.10 | 0.20 | 0.15 | 92 | 1011.9 |
| 20260831055032 | 15 | 63 | 0.0 | 0.0 | 0.10 | 0.20 | 0.15 | 91 | 1011.8 |
| 20260831054538 | 15 | 61 | 0.0 | 0.0 | 0.10 | 0.20 | 0.15 | 92 | 1011.8 |
| 20260831054031 | 15 | 231 | 0.0 | 1.6 | 0.10 | 0.20 | 0.15 | 92 | 1011.8 |
| 20260831053531 | 15 | 200 | 0.0 | 1.6 | 0.10 | 0.20 | 0.15 | 91 | 1012.0 |
| 20260831053034 | 16 | 59 | 0.0 | 0.0 | 0.10 | 0.25 | 0.15 | 90 | 1011.9 |
| 20260831052529 | 16 | 60 | 0.0 | 0.0 | 0.08 | 0.23 | 0.15 | 88 | 1012.0 |
| 20260831052026 | 16 | 59 | 0.0 | 0.0 | 0.08 | 0.23 | 0.15 | 87 | 1012.0 |
| 20260831051528 | 16 | 233 | 0.0 | 1.6 | 0.08 | 0.23 | 0.15 | 85 | 1012.0 |
| 20260831051026 | 16 | 51 | 0.0 | 1.6 | 0.05 | 0.23 | 0.13 | 84 | 1012.0 |
| 20260831050529 | 16 | 63 | 0.0 | 1.6 | 0.03 | 0.18 | 0.08 | 82 | 1011.9 |
| 20260831050039 | 16 | 50 | 0.0 | 1.6 | 0.00 | 0.15 | 0.05 | 82 | 1011.9 |
| 20260831045526 | 17 | 52 | 0.0 | 1.6 | 0.00 | 0.15 | 0.05 | 81 | 1011.9 |
| 20260831045026 | 17 | 75 | 0.0 | 1.6 | 0.00 | 0.15 | 0.05 | 81 | 1011.8 |
| 20260831044526 | 17 | 49 | 0.0 | 3.2 | 0.00 | 0.15 | 0.05 | 82 | 1011.7 |
| 20260831044026 | 17 | 39 | 0.0 | 3.2 | 0.00 | 0.15 | 0.05 | 82 | 1011.7 |
| 20260831043525 | 17 | 67 | 0.0 | 1.6 | 0.00 | 0.15 | 0.05 | 82 | 1011.7 |
| 20260831043028 | 18 | 61 | 0.0 | 3.2 | 0.00 | 0.43 | 0.05 | 80 | 1011.7 |
| 20260831042525 | 18 | 89 | 0.0 | 8.0 | 0.00 | 0.43 | 0.05 | 77 | 1011.7 |
| 20260831042025 | 18 | 65 | 0.0 | 8.0 | 0.00 | 0.43 | 0.05 | 76 | 1011.7 |
| 20260831041529 | 18 | 134 | 0.0 | 6.4 | 0.00 | 0.43 | 0.05 | 75 | 1011.6 |
| 20260831041025 | 18 | 128 | 0.0 | 6.4 | 0.00 | 0.43 | 0.05 | 75 | 1011.6 |
| 20260831040525 | 18 | 355 | 0.0 | 1.6 | 0.00 | 0.43 | 0.05 | 76 | 1011.7 |
| 20260831040042 | 18 | 51 | 0.0 | 1.6 | 0.00 | 0.43 | 0.05 | 78 | 1011.5 |
| 20260831035524 | 18 | 64 | 0.0 | 1.6 | 0.00 | 0.43 | 0.05 | 77 | 1011.5 |
| 20260831035012 | 18 | 77 | 0.0 | 0.0 | 0.00 | 0.43 | 0.05 | 78 | 1011.5 |
| 20260831034512 | 18 | 134 | 0.0 | 0.0 | 0.00 | 0.43 | 0.05 | 79 | 1011.3 |
| 20260831034012 | 18 | 130 | 0.0 | 0.0 | 0.00 | 0.43 | 0.05 | 79 | 1011.2 |
| 20260831033512 | 18 | 129 | 0.0 | 0.0 | 0.00 | 0.43 | 0.05 | 79 | 1011.1 |
| 20260831033018 | 18 | 129 | 0.0 | 0.0 | 0.00 | 0.71 | 0.05 | 78 | 1010.9 |
| 20260831032512 | 18 | 129 | 0.0 | 0.0 | 0.00 | 0.71 | 0.05 | 78 | 1010.8 |
| 20260831032010 | 18 | 60 | 0.0 | 0.0 | 0.00 | 0.71 | 0.05 | 78 | 1010.6 |
| 20260831031511 | 18 | 61 | 0.0 | 0.0 | 0.00 | 0.71 | 0.05 | 77 | 1010.5 |
| 20260831031010 | 18 | 61 | 0.0 | 0.0 | 0.00 | 0.71 | 0.05 | 77 | 1010.5 |
| 20260831030510 | 18 | 61 | 0.0 | 0.0 | 0.00 | 0.71 | 0.05 | 77 | 1010.3 |
| 20260831030024 | 18 | 61 | 0.0 | 0.0 | 0.00 | 0.71 | 0.05 | 76 | 1010.2 |
| 20260831025510 | 18 | 63 | 0.0 | 0.0 | 0.00 | 0.71 | 0.05 | 75 | 1010.2 |
| 20260831025011 | 18 | 64 | 0.0 | 0.0 | 0.00 | 0.71 | 0.05 | 75 | 1010.2 |
| 20260831024510 | 18 | 27 | 0.0 | 0.0 | 0.00 | 0.71 | 0.05 | 74 | 1010.1 |
| 20260831024009 | 19 | 53 | 0.0 | 0.0 | 0.00 | 0.71 | 0.05 | 73 | 1010.0 |
| 20260831023513 | 19 | 27 | 0.0 | 0.0 | 0.00 | 0.71 | 0.05 | 72 | 1010.0 |
| 20260831023009 | 19 | 124 | 0.0 | 1.6 | 0.00 | 0.71 | 0.05 | 70 | 1010.0 |
| 20260831022509 | 19 | 120 | 0.0 | 1.6 | 0.00 | 0.71 | 0.05 | 71 | 1009.9 |
| 20260831022009 | 19 | 116 | 0.0 | 0.0 | 0.00 | 0.71 | 0.05 | 70 | 1009.7 |
| 20260831021508 | 18 | 101 | 0.0 | 0.0 | 0.00 | 0.71 | 0.05 | 71 | 1009.6 |
| 20260831021008 | 18 | 65 | 0.0 | 0.0 | 0.00 | 0.71 | 0.05 | 73 | 1009.4 |
| 20260831020509 | 18 | 132 | 0.0 | 1.6 | 0.00 | 0.71 | 0.05 | 73 | 1009.3 |
| 20260831020008 | 18 | 162 | 0.0 | 3.2 | 0.00 | 0.71 | 0.05 | 75 | 1009.1 |
| 20260831015507 | 18 | 167 | 0.0 | 3.2 | 0.00 | 0.71 | 0.05 | 76 | 1008.9 |
| 20260831015012 | 18 | 86 | 0.0 | 1.6 | 0.00 | 0.71 | 0.05 | 76 | 1008.6 |
| 20260831014505 | 18 | 58 | 0.0 | 1.6 | 0.00 | 0.71 | 0.05 | 75 | 1008.3 |
| 20260831014006 | 18 | 61 | 0.0 | 1.6 | 0.00 | 0.71 | 0.05 | 75 | 1008.2 |
| 20260831013505 | 18 | 56 | 0.0 | 1.6 | 0.00 | 0.71 | 0.05 | 77 | 1008.2 |
| 20260831013004 | 18 | 68 | 0.0 | 1.6 | 0.00 | 0.71 | 0.05 | 75 | 1008.1 |
| 20260831012504 | 18 | 63 | 0.0 | 1.6 | 0.00 | 0.71 | 0.05 | 75 | 1007.9 |
| 20260831012004 | 18 | 70 | 0.0 | 1.6 | 0.00 | 0.71 | 0.05 | 75 | 1007.8 |
| 20260831011546 | 18 | 49 | 0.0 | 1.6 | 0.00 | 0.71 | 0.05 | 75 | 1007.9 |
| 20260831011044 | 18 | 74 | 0.0 | 6.4 | 0.00 | 0.71 | 0.05 | 76 | 1008.0 |
| 20260831010545 | 19 | 63 | 0.0 | 6.4 | 0.00 | 0.71 | 0.05 | 76 | 1008.0 |
| 20260831010045 | 19 | 72 | 0.0 | 1.6 | 0.00 | 0.71 | 0.05 | 76 | 1008.1 |
| 20260831005545 | 19 | 88 | 0.0 | 0.0 | 0.00 | 0.71 | 0.05 | 75 | 1008.0 |
| 20260831005045 | 19 | 70 | 0.0 | 0.0 | 0.00 | 0.71 | 0.05 | 74 | 1008.1 |
| 20260831004528 | 19 | 69 | 0.0 | 0.0 | 0.00 | 0.71 | 0.05 | 74 | 1008.1 |
| 20260831004028 | 20 | 68 | 0.0 | 0.0 | 0.00 | 0.71 | 0.05 | 73 | 1008.1 |
| 20260831003628 | 20 | 63 | 0.0 | 1.6 | 0.00 | 0.71 | 0.05 | 72 | 1008.1 |
| 20260831003027 | 20 | 134 | 0.0 | 3.2 | 0.00 | 0.71 | 0.05 | 70 | 1008.2 |
| 20260831002527 | 20 | 52 | 0.0 | 3.2 | 0.00 | 0.71 | 0.05 | 69 | 1008.3 |
| 20260831002027 | 20 | 127 | 0.0 | 1.6 | 0.00 | 0.71 | 0.05 | 70 | 1008.4 |
| 20260831001516 | 20 | 60 | 0.0 | 1.6 | 0.00 | 0.71 | 0.05 | 70 | 1008.5 |
| 20260831001016 | 20 | 70 | 0.0 | 1.6 | 0.00 | 0.71 | 0.05 | 69 | 1008.6 |
| 20260831000516 | 20 | 77 | 0.0 | 16.1 | 0.00 | 0.71 | 0.05 | 69 | 1008.7 |
| 20260831000017 | 20 | 77 | 1.6 | 16.1 | 0.00 | 0.71 | 0.05 | 69 | 1008.6 |
| 20260830235515 | 21 | 73 | 0.0 | 3.2 | 0.00 | 0.71 | 0.05 | 67 | 1008.6 |
| 20260830235017 | 20 | 128 | 0.0 | 1.6 | 0.00 | 0.71 | 0.05 | 68 | 1008.5 |
| 20260830234515 | 21 | 65 | 0.0 | 1.6 | 0.00 | 0.71 | 0.05 | 68 | 1008.6 |
| 20260830234016 | 21 | 74 | 0.0 | 1.6 | 0.00 | 0.71 | 0.05 | 69 | 1008.5 |
| 20260830233518 | 21 | 66 | 0.0 | 1.6 | 0.00 | 0.71 | 0.05 | 67 | 1008.3 |
| 20260830233020 | 21 | 69 | 0.0 | 1.6 | 0.00 | 0.79 | 0.05 | 66 | 1008.2 |
| 20260830232515 | 21 | 60 | 0.0 | 1.6 | 0.00 | 0.79 | 0.05 | 68 | 1008.1 |
| 20260830232015 | 21 | 70 | 0.0 | 1.6 | 0.00 | 0.79 | 0.05 | 68 | 1008.0 |
| 20260830231514 | 21 | 51 | 0.0 | 1.6 | 0.00 | 0.79 | 0.05 | 66 | 1008.0 |
| 20260830231012 | 21 | 70 | 0.0 | 8.0 | 0.00 | 0.79 | 0.05 | 66 | 1008.1 |
| 20260830230513 | 21 | 61 | 0.0 | 9.7 | 0.00 | 0.79 | 0.05 | 65 | 1008.0 |
| 20260830230017 | 21 | 84 | 1.6 | 9.7 | 0.00 | 0.79 | 0.05 | 71 | 1007.9 |
| 20260830225513 | 21 | 71 | 0.0 | 3.2 | 0.05 | 0.79 | 0.05 | 73 | 1008.0 |
| 20260830225022 | 21 | 67 | 0.0 | 3.2 | 0.05 | 0.79 | 0.05 | 76 | 1008.0 |
| 20260830224512 | 21 | 74 | 0.0 | 0.0 | 0.05 | 0.79 | 0.05 | 75 | 1008.0 |
| 20260830224012 | 21 | 160 | 0.0 | 0.0 | 0.05 | 0.79 | 0.05 | 76 | 1007.9 |
| 20260830223613 | 20 | 139 | 0.0 | 0.0 | 0.05 | 0.79 | 0.05 | 75 | 1007.8 |
| 20260830223014 | 20 | 138 | 0.0 | 0.0 | 0.05 | 1.83 | 0.05 | 74 | 1007.9 |
| 20260830222511 | 20 | 139 | 0.0 | 0.0 | 0.05 | 1.83 | 0.05 | 72 | 1007.8 |
| 20260830222010 | 20 | 139 | 0.0 | 0.0 | 0.05 | 1.83 | 0.05 | 82 | 1008.0 |
| 20260830221600 | 19 | 139 | 0.0 | 1.6 | 0.05 | 1.83 | 0.05 | 81 | 1008.0 |
| 20260830221100 | 20 | 139 | 0.0 | 4.8 | 0.05 | 1.83 | 0.05 | 79 | 1008.2 |